sat.trackr.live / text

‹ back to catalog

STARLINK-37246

NORAD 68607 · 2026-073F

PAYLOAD ACTIVE UNKNOWN

§ Identity

Operator
Country
US
Launch date
2026-04-07
Launch site
AFWTR
Launch vehicle
Mass (kg)
RCS (m²)

Purposes: comms

External: N2YO · Heavens-Above · Gunter

§ Orbital elements

Epoch: 2026-09-18T01:55:48.027936Z

Period
93.91 min
Inclination
97.2856°
Eccentricity
0.0001183
Mean motion
15.33445270 rev/d
Perigee alt
464.7 km
Apogee alt
466.4 km
Semi-major
6,843.7 km
B*
3.2545e-4
RAAN
99.1822°
Arg perigee
116.6841°
Mean anomaly
243.4523°
Rev number
2,537

§ Raw data

STARLINK-372461 68607U 26073F   26261.08041699  .00010446  00000+0  32545-3 0  99952 68607  97.2856  99.1822 0001183 116.6841 243.4523 15.33445270 25371

JSON: /api/v1/satellites/68607 · /tle

For live sub-satellite position, see the globe view (requires WebGL).

§ Visibility from observer

Set your observer location to see the next 7 days of passes ≥ 10°. The values pass through the URL so the page stays shareable.

No JS? Fill the form by hand. The geolocation button needs JavaScript.